Regional Weather Roundup
Issued by NWS

Home | Current Version | Previous Version | Graphics & Text | Print | Product List | Glossary On
Versions: 1 2 3 4 5 6 7 8 9 10 11 12 13 14 15 16 17 18 19 20 21 22 23 24 25 26 27 28 29 30 31 32 33 34 35 36 37 38 39 40 41 42 43 44 45 46 47 48 49 50
000
ASUS45 KSLC 260410
RWRUT

UTAH REGIONAL WEATHER ROUNDUP
NATIONAL WEATHER SERVICE SALT LAKE CITY UT
1000 PM MDT SAT MAR 25 2017

UTZ001>011-023>025-260500-

NORTHERN UTAH

CITY           SKY/WX    TMP DP  RH WIND       PRES   REMARKS
BRIGHAM CITY     N/A     43  38  82 CALM      30.04S
HILL AFB       PTCLDY    38  37  97 S6        30.03R WCI  34
LOGAN          CLOUDY    41  36  82 E6        30.03R
OGDEN          PTCLDY    38  37  97 S6        30.03R WCI  33
SALT LAKE CITY MOCLDY    42  38  85 NE5       30.03R
WENDOVER       MOCLDY    46  37  71 W3        30.03R
HEBER CITY     CLOUDY    39  34  81 SE3       29.99R

$$

UTZ011>015-024>027-260500-

CENTRAL/NORTHEAST UTAH

CITY           SKY/WX    TMP DP  RH WIND       PRES   REMARKS
PROVO AIRPORT  CLOUDY    42  37  82 NW13      30.04R
MOAB/CANYONLAN CLOUDY    47  41  80 W7        29.87R
DELTA          CLOUDY    39  37  93 CALM      30.04R
PRICE          PTCLDY    41  32  70 NW7       29.93R
ROOSEVELT      CLOUDY    46  34  61 W12       29.93R
VERNAL         CLOUDY    46  39  76 CALM      29.92R

$$

UTZ013>016-019>022-027-260500-

SOUTHERN UTAH

CITY           SKY/WX    TMP DP  RH WIND       PRES   REMARKS
BRYCE CANYON   CLOUDY    34  29  82 NW14      30.00R WCI  25
CEDAR CITY     CLOUDY    38  36  92 MISG      30.04R
MILFORD        CLOUDY    41  38  89 N5        30.04R
ST GEORGE      CLOUDY    52  39  61 N7        30.00R
HANKSVILLE     CLOUDY    50  36  57 W5        29.91R
BLANDING       CLOUDY    42  36  80 E5        30.01S

$$

REGIONAL REPORTS     COLORADO/ARIZONA

CITY           SKY/WX    TMP DP  RH WIND       PRES   REMARKS
CRAIG, CO      CLOUDY    43  33  68 W3        29.92R
GRAND JUNCTION CLOUDY    47  37  68 NW5       29.87S
RIFLE, CO      CLOUDY    47  37  68 E6        29.91F
MONTROSE, CO   CLOUDY    46  37  71 S9        29.93R
CORTEZ, CO     LGT RAIN  40  38  93 E6        29.97F
COLORADO CITY    N/A     43  37  81 NW5       30.04R
PAGE, AZ       MOCLDY    52  39  61 W12G22    29.93S
GRAND CANYON   PTCLDY    41  29  62 W8        30.02R
KINGMAN, AZ    CLEAR     51  26  37 E6        29.98R
FLAGSTAFF, AZ  PTCLDY    39  30  70 SW12      30.02R WCI  32

$$

REGIONAL REPORTS    NEVADA/IDAHO/WYOMING

CITY           SKY/WX    TMP DP  RH WIND       PRES   REMARKS
LAS VEGAS, NV  PTCLDY    65  34  31 N7        29.95R
ELY, NY        PTCLDY    34  31  88 CALM      30.06R
ELKO, NV       MOCLDY    41  30  65 CALM      30.02S
POCATELLO, ID  CLEAR     38  29  70 SW12      30.01R WCI  30
BURLEY, ID     CLEAR     41  28  60 SW8       30.00S
FORT BRIDGER,  CLOUDY    35  34  97 W10       30.02R WCI  27
EVANSTON, WY   CLOUDY    33  30  88 W6        30.00R WCI  28
ROCK SPRINGS,  CLOUDY    37  34  89 SW13      29.93S WCI  29
KEMMERER, WY     N/A     32  28  86 W12       29.98R WCI  23

$$



USA.gov is the U.S. government's official web portal to all federal, state and local government web resources and services.